Weather in Kiparisovo

Russia / Primorsky Krai     43°28′33″N   131°55′23″E
temp.,
°C
wind,
m/s
gust,
m/s
humid.,
%
clouds,
%
prec.,
mm/h
press.,
hPa
HPBL,
m
12 may, wed
wed1201:00+6ssw4109320 0.0 1020402
04:00+6s3109018 0.0 1019400
07:00+6s3108961 0.0 1019447
10:00+12s8136334 0.0 1017997
13:00+13s91459100 0.0 10161166
16:00+11s81472100 0.0 10151081
19:00+9s61286100 0.3 1015828
22:00+9s51391100 0.9 1016667
13 may, thu
thu1301:00+9s51292100 0.0 1015642
04:00+8s4129552 0.0 1014544
07:00+9s51291100 0.0 1015624
10:00+12s61175100 0.0 1015749
13:00+15s6965100 0.0 1014770
16:00+15s6863100 0.0 1012613
19:00+13sse51072100 0.0 1012532
22:00+9sse258711 0.0 1014125
14 may, fri
fri1401:00+8sse22905 0.0 101447
04:00+7sse229289 0.0 101332
07:00+9se12865 0.0 101459
10:00+16s346399 0.0 1014460
13:00+20s455133 0.0 1013660
16:00+17s61059100 0.0 1012518
19:00+13s41178100 0.0 1012479
22:00+11sse41281100 0.0 1013458
15 may, sat
sat1501:00+11s51387100 0.0 1011571
04:00+11s51297100 1.0 1010551
07:00+11s51297100 0.0 1010540
10:00+14s6118323 0.0 1009589
13:00+18s796429 0.0 1007573
16:00+17ssw3369100 0.0 1007463
19:00+15wsw2278100 0.1 100896
22:00+11nne41090100 2.8 1011454
16 may, sun
sun1601:00+10n2384100 0.4 101073
04:00+9nnw1188100 0.6 100935
07:00+10nnw1184100 0.0 100927
10:00+14sw0167100 0.0 1008299
13:00+17sw2249100 0.0 1007765
16:00+17ssw2249100 0.0 1005540
19:00+13s2469100 0.0 1005149
22:00+11se1173100 0.0 100612